Weather History for Tampa Macdill AFB, FL

Change the Weather History Date:

Wednesday, December 26, 2012

  Actual Average Record
Temperature  
Mean Temperature 67 °F -  
Max Temperature 75 °F 67 °F 81 °F (2008)
Min Temperature 55 °F 50 °F 35 °F (1999)
Cooling Degree Days 2    
Growing Degree Days 17 (Base 50)    
Moisture  
Dew Point 64 °F    
Average Humidity 87    
Maximum Humidity 100    
Minimum Humidity 63    
Precipitation  
Precipitation 0.34 in - - ()
Sea Level Pressure  
Sea Level Pressure 29.87 in    
Wind  
Wind Speed 11 mph (NW)    
Max Wind Speed 23 mph    
Max Gust Speed 30 mph    
Visibility 8 miles    
Events Fog , Rain , Thunderstorm    
Averages and records for this station are not official NWS values.
T = Trace of Precipitation, MM = Missing Value Source: NWS Daily Summary

Daily Weather History Graph

Daily Weather History Graph

Search for Another Location

Airport:

Trip Planner

Search our weather history database for the weather conditions in past years. The results will help you decide how hot, cold, wet, or windy it might be!

Date:

Astronomy

Dec. 26, 2012 Rise Set
Actual Time 7:19 AM EST 5:42 PM EST
Civil Twilight 6:53 AM EST 6:08 PM EST
Nautical Twilight 6:24 AM EST 6:37 PM EST
Astronomical Twilight 5:55 AM EST 7:06 PM EST
Moon 4:33 PM EST (12/26) 5:44 AM EST (12/26)
Length of Visible Light 11h 14m
Length of Day
10h 23m
Waxing Gibbous, 97% of the Moon is Illuminated
Dec 26
Waxing Gibbous
Dec 28
Full
Jan 4
Last Quarter
Jan 11
New
Jan 18
First Quarter

Hourly Weather History & Observations

Time (EST) Temp. Dew Point Humidity Pressure Visibility Wind Dir Wind Speed Gust Speed Precip Events Conditions
12:55 AM - - N/A% - 10.0 mi SW 8.1 mph - N/A   Clear
1:55 AM - - N/A% - 10.0 mi SW 8.1 mph - N/A   Mostly Cloudy
2:55 AM - - N/A% - 10.0 mi SW 9.2 mph - N/A   Overcast
3:55 AM - - N/A% - 10.0 mi SW 8.1 mph - N/A   Mostly Cloudy
4:55 AM - - N/A% - 10.0 mi SW 8.1 mph - N/A   Mostly Cloudy
5:01 AM - - N/A% - 10.0 mi SW 8.1 mph - N/A   Mostly Cloudy
5:14 AM - - N/A% - 10.0 mi SW 12.7 mph - N/A   Scattered Clouds
5:55 AM - - N/A% - 10.0 mi SW 11.5 mph - N/A   Clear
6:08 AM 68.0 °F 59.0 °F 73% 29.84 in 10.0 mi SW 15.0 mph - N/A   Partly Cloudy
6:46 AM 66.2 °F 64.4 °F 94% 29.85 in 10.0 mi WSW 13.8 mph - N/A   Partly Cloudy
6:55 AM 65.3 °F 65.1 °F 99% 29.85 in 10.0 mi WSW 16.1 mph - N/A   Clear
7:55 AM 66.2 °F 66.2 °F 100% 29.84 in 10.0 mi WSW 15.0 mph - N/A   Clear
8:30 AM 68.0 °F 68.0 °F 100% 29.84 in 0.2 mi WSW 12.7 mph - N/A Fog Fog
8:55 AM 68.7 °F 68.5 °F 99% 29.85 in 10.0 mi WSW 13.8 mph - N/A   Clear
9:55 AM 70.9 °F 69.8 °F 96% 29.85 in 10.0 mi West 23.0 mph 28.8 mph N/A   Mostly Cloudy
10:55 AM 73.8 °F 70.0 °F 88% 29.85 in 10.0 mi West 21.9 mph 26.5 mph N/A   Scattered Clouds
11:32 AM 75.2 °F 69.8 °F 83% 29.83 in 10.0 mi West 20.7 mph 29.9 mph N/A Thunderstorm Thunderstorm
11:33 AM 75.2 °F 69.8 °F 83% 29.83 in 10.0 mi West 19.6 mph 29.9 mph N/A Thunderstorm Thunderstorm
11:42 AM 73.4 °F 69.8 °F 88% 29.83 in 10.0 mi West 23.0 mph 28.8 mph N/A Rain , Thunderstorm Light Thunderstorms and Rain
11:55 AM 71.1 °F 69.8 °F 96% 29.87 in 9.0 mi NW 18.4 mph 28.8 mph 0.00 in Rain , Thunderstorm Light Thunderstorms and Rain
11:59 AM 69.8 °F 69.8 °F 100% 29.87 in 2.5 mi NNW 15.0 mph 28.8 mph N/A Rain , Thunderstorm Thunderstorms and Rain
12:01 PM 69.8 °F 68.0 °F 94% 29.86 in 1.8 mi NW 12.7 mph 28.8 mph N/A Rain , Thunderstorm Heavy Thunderstorms and Rain
12:02 PM 69.8 °F 68.0 °F 94% 29.86 in 1.2 mi NNW 11.5 mph 28.8 mph N/A Rain , Thunderstorm Heavy Thunderstorms and Rain
12:03 PM 69.8 °F 68.0 °F 94% 29.86 in 1.0 mi NNW 12.7 mph 28.8 mph N/A Rain , Thunderstorm Heavy Thunderstorms and Rain
12:04 PM 69.8 °F 68.0 °F 94% 29.86 in 1.0 mi NNW 10.4 mph 26.5 mph N/A Rain , Thunderstorm Heavy Thunderstorms and Rain
12:05 PM 69.8 °F 68.0 °F 94% 29.86 in 0.8 mi NNW 9.2 mph 26.5 mph N/A Rain , Thunderstorm Heavy Thunderstorms and Rain
12:06 PM 69.8 °F 68.0 °F 94% 29.87 in 0.8 mi NNW 8.1 mph 21.9 mph N/A Rain Heavy Rain
12:07 PM 68.0 °F 68.0 °F 100% 29.87 in 1.0 mi NW 8.1 mph 18.4 mph N/A Rain Heavy Rain
12:12 PM 68.0 °F 66.2 °F 94% 29.86 in 1.2 mi NW 6.9 mph 18.4 mph N/A Rain Heavy Rain
12:13 PM 68.0 °F 66.2 °F 94% 29.86 in 1.5 mi NW 5.8 mph - N/A Rain Heavy Rain
12:19 PM 66.2 °F 66.2 °F 100% 29.85 in 2.0 mi NNW 6.9 mph - N/A Rain Rain
12:23 PM 66.2 °F 66.2 °F 100% 29.85 in 4.0 mi NNW 5.8 mph - N/A Rain Light Rain
12:27 PM 66.2 °F 66.2 °F 100% 29.85 in 8.0 mi NNW 6.9 mph - N/A Rain Light Rain
12:32 PM 66.2 °F 66.2 °F 100% 29.85 in 10.0 mi NNW 6.9 mph - N/A Thunderstorm Mostly Cloudy
12:55 PM 66.9 °F 66.9 °F 100% 29.85 in 10.0 mi NW 10.4 mph - 0.34 in   Overcast
1:55 PM 69.4 °F 64.2 °F 83% 29.85 in 10.0 mi North 13.8 mph 21.9 mph N/A   Mostly Cloudy
1:58 PM 69.8 °F 64.4 °F 83% 29.85 in 10.0 mi North 11.5 mph 21.9 mph N/A   Mostly Cloudy
2:55 PM 69.6 °F 63.0 °F 79% - 10.0 mi North 12.7 mph 20.7 mph N/A   Mostly Cloudy
3:06 PM - - N/A% - 10.0 mi North 13.8 mph 21.9 mph N/A   Mostly Cloudy
3:55 PM 71.6 °F 60.8 °F 69% 29.85 in 10.0 mi North 12.7 mph 19.6 mph N/A   Scattered Clouds
4:55 PM 69.8 °F 59.0 °F 68% 29.85 in 10.0 mi North 12.7 mph 20.7 mph N/A   Mostly Cloudy
5:55 PM 69.8 °F 57.2 °F 64% 29.91 in 10.0 mi NNE 11.5 mph 19.6 mph N/A   Mostly Cloudy
6:03 PM 68.0 °F 57.2 °F 68% 29.92 in 10.0 mi NNE 11.5 mph 19.6 mph N/A   Mostly Cloudy
6:55 PM 61.0 °F 55.6 °F 82% 29.94 in 10.0 mi North 11.5 mph 19.6 mph N/A   Scattered Clouds
7:26 PM 60.8 °F 55.4 °F 82% - 10.0 mi NNE 12.7 mph 18.4 mph N/A   Mostly Cloudy
7:55 PM - - N/A% - 10.0 mi NNE 11.5 mph 20.7 mph N/A   Mostly Cloudy
7:57 PM - - N/A% - 10.0 mi North 10.4 mph 20.7 mph N/A   Scattered Clouds
8:04 PM - - N/A% - 10.0 mi North 9.2 mph 18.4 mph N/A   Mostly Cloudy
8:55 PM 64.4 °F 51.8 °F 64% 29.98 in 10.0 mi NNE 6.9 mph 21.9 mph N/A   Partly Cloudy
9:55 PM 60.8 °F 50.0 °F 68% 30.01 in 10.0 mi NNE 9.2 mph 17.3 mph N/A   Scattered Clouds
10:55 PM 59.0 °F 46.4 °F 63% 30.02 in 10.0 mi NNE 6.9 mph - N/A   Scattered Clouds
11:55 PM 55.4 °F 46.4 °F 72% 30.04 in 10.0 mi NNE 8.1 mph - N/A   Partly Cloudy